Tracking 18816 objects as of 17-October-2017
HD Live streaming from Space Station
objects crossing your sky now

CZ-4C DEB

Track CZ-4C DEB now!
10-day predictions


NORAD ID: 38305
Int'l Code: 2010-009J
Perigee: 1,205.6 km
Apogee: 1,334.2 km
Inclination: 63.5 °
Period: 110.8 minutes
Semi major axis: 7640 km
RCS: 0.0013 m2 (small)
Launch date: March 5, 2010
Source: People's Republic of China (PRC)
Launch site: Jiuquan Satellite Launch Center, China (JSC)

Note: This is SATELLITE DEBRIS
aabbcc
Your satellite tracking list
Your tracking list is empty





NASA's NSSDC Master Catalog

Two Line Element Set (TLE):
1 38305U 10009J   17290.06888028 -.00000030  00000-0  16181-3 0  9992
2 38305  63.4976  90.6393 0084140  75.0180  29.8480 12.99820322361227
Source of the keplerian elements: AFSPC